Weather History for Everett-Stewart Regional Airp, TN

Change the Weather History Date:

Thursday, February 6, 2014

  Actual Average (KDYR) Record (KDYR)
Temperature  
Mean Temperature 16 °F -  
Max Temperature 19 °F 46 °F 66 °F (1999)
Min Temperature 12 °F 33 °F 17 °F (2014)
Degree Days  
Heating Degree Days 50    
Moisture  
Dew Point 14 °F    
Average Humidity 87    
Maximum Humidity 93    
Minimum Humidity 79    
Precipitation  
Precipitation 0.00 in - - ()
Sea Level Pressure  
Sea Level Pressure 30.50 in    
Wind  
Wind Speed 5 mph (North)    
Max Wind Speed 7 mph    
Max Gust Speed -    
Visibility 10 miles    
Events      
Averages and records for this station are not official NWS values.
T = Trace of Precipitation, MM = Missing Value Source: NWS Daily Summary

Daily Weather History Graph

Daily Weather History Graph

Search for Another Location

Airport:

Trip Planner

Search our weather history database for the weather conditions in past years. The results will help you decide how hot, cold, wet, or windy it might be!

Date:

Astronomy

Feb. 06, 2014 Rise Set
Actual Time 6:52 AM CST 5:27 PM CST
Civil Twilight 6:26 AM CST 5:54 PM CST
Nautical Twilight 5:55 AM CST 6:24 PM CST
Astronomical Twilight 5:25 AM CST 6:55 PM CST
Moon 10:59 AM CST (2/6) 12:08 AM CST (2/6)
Length of Visible Light 11h 28m
Length of Day
10h 34m
Waxing Crescent, 49% of the Moon is Illuminated
Feb 6
Waxing Crescent
Feb 6
First Quarter
Feb 14
Full
Feb 22
Last Quarter
Mar 1
New

Hourly Weather History & Observations

Time (CST) Temp. Windchill Dew Point Humidity Pressure Visibility Wind Dir Wind Speed Gust Speed Precip Events Conditions
12:15 AM 19.4 °F 12.8 °F 17.6 °F 93% 30.50 in 10.0 mi North 4.6 mph - N/A   Overcast
12:35 AM 19.4 °F 10.4 °F 15.8 °F 86% 30.48 in 10.0 mi North 6.9 mph - N/A   Overcast
12:55 AM 19.4 °F 11.5 °F 15.8 °F 86% 30.48 in 10.0 mi North 5.8 mph - N/A   Overcast
1:15 AM 19.4 °F 11.5 °F 15.8 °F 86% 30.47 in 10.0 mi North 5.8 mph - N/A   Overcast
1:35 AM 19.4 °F 11.5 °F 15.8 °F 86% 30.47 in 10.0 mi North 5.8 mph - N/A   Overcast
1:55 AM 19.4 °F 11.5 °F 15.8 °F 86% 30.46 in 10.0 mi North 5.8 mph - N/A   Overcast
2:15 AM 17.6 °F 9.3 °F 15.8 °F 93% 30.47 in 10.0 mi North 5.8 mph - N/A   Overcast
2:35 AM 17.6 °F 10.7 °F 14.0 °F 86% 30.47 in 10.0 mi North 4.6 mph - N/A   Overcast
2:55 AM 17.6 °F 9.3 °F 15.8 °F 93% 30.47 in 10.0 mi North 5.8 mph - N/A   Overcast
3:15 AM 17.6 °F 9.3 °F 14.0 °F 86% 30.47 in 10.0 mi North 5.8 mph - N/A   Overcast
3:35 AM 17.6 °F 10.7 °F 14.0 °F 86% 30.48 in 10.0 mi North 4.6 mph - N/A   Overcast
3:55 AM 17.6 °F 10.7 °F 15.8 °F 93% 30.48 in 10.0 mi North 4.6 mph - N/A   Overcast
4:15 AM 17.6 °F 9.3 °F 15.8 °F 93% 30.48 in 10.0 mi North 5.8 mph - N/A   Overcast
4:35 AM 17.6 °F 9.3 °F 15.8 °F 93% 30.48 in 10.0 mi North 5.8 mph - N/A   Overcast
4:55 AM 17.6 °F 8.2 °F 14.0 °F 86% 30.49 in 10.0 mi North 6.9 mph - N/A   Overcast
5:15 AM 17.6 °F 9.3 °F 14.0 °F 86% 30.50 in 10.0 mi North 5.8 mph - N/A   Overcast
5:35 AM 17.6 °F 9.3 °F 14.0 °F 86% 30.51 in 10.0 mi North 5.8 mph - N/A   Overcast
5:55 AM 17.6 °F 9.3 °F 14.0 °F 86% 30.50 in 10.0 mi North 5.8 mph - N/A   Overcast
6:15 AM 17.6 °F 9.3 °F 14.0 °F 86% 30.51 in 10.0 mi North 5.8 mph - N/A   Overcast
6:35 AM 17.6 °F 9.3 °F 14.0 °F 86% 30.51 in 10.0 mi North 5.8 mph - N/A   Overcast
6:55 AM 15.8 °F 7.2 °F 12.2 °F 86% 30.53 in 10.0 mi North 5.8 mph - N/A   Overcast
7:15 AM 15.8 °F 7.2 °F 12.2 °F 86% 30.53 in 10.0 mi North 5.8 mph - N/A   Overcast
7:35 AM 15.8 °F 8.6 °F 12.2 °F 86% 30.54 in 10.0 mi North 4.6 mph - N/A   Overcast
7:55 AM 17.6 °F 9.3 °F 12.2 °F 79% 30.54 in 10.0 mi North 5.8 mph - N/A   Overcast
8:15 AM 15.8 °F 7.2 °F 12.2 °F 86% 30.55 in 10.0 mi North 5.8 mph - N/A   Overcast
8:35 AM 17.6 °F 9.3 °F 12.2 °F 79% 30.56 in 10.0 mi North 5.8 mph - N/A   Overcast
8:55 AM 17.6 °F 9.3 °F 12.2 °F 79% 30.56 in 10.0 mi North 5.8 mph - N/A   Overcast
9:15 AM 17.6 °F 9.3 °F 14.0 °F 86% 30.55 in 10.0 mi North 5.8 mph - N/A   Overcast
9:35 AM 17.6 °F 10.7 °F 14.0 °F 86% 30.56 in 10.0 mi North 4.6 mph - N/A   Overcast
9:55 AM 17.6 °F 8.2 °F 14.0 °F 86% 30.55 in 10.0 mi NNE 6.9 mph - N/A   Overcast
10:15 AM 17.6 °F 9.3 °F 12.2 °F 79% 30.55 in 10.0 mi North 5.8 mph - N/A   Overcast
10:35 AM 17.6 °F 10.7 °F 14.0 °F 86% 30.56 in 10.0 mi North 4.6 mph - N/A   Overcast
10:55 AM 17.6 °F 10.7 °F 14.0 °F 86% 30.54 in 10.0 mi North 4.6 mph - N/A   Overcast
11:15 AM 17.6 °F 12.3 °F 14.0 °F 86% 30.54 in 10.0 mi North 3.5 mph - N/A   Overcast
11:35 AM 17.6 °F 12.3 °F 14.0 °F 86% 30.53 in 10.0 mi NNW 3.5 mph - N/A   Overcast
11:55 AM 17.6 °F 12.3 °F 14.0 °F 86% 30.52 in 10.0 mi North 3.5 mph - N/A   Overcast
12:15 PM 17.6 °F 12.3 °F 14.0 °F 86% 30.51 in 10.0 mi NNE 3.5 mph - N/A   Overcast
12:35 PM 17.6 °F 10.7 °F 14.0 °F 86% 30.49 in 10.0 mi North 4.6 mph - N/A   Overcast
12:55 PM 17.6 °F 9.3 °F 15.8 °F 93% 30.49 in 10.0 mi North 5.8 mph - N/A   Overcast
1:15 PM 17.6 °F 9.3 °F 15.8 °F 93% 30.48 in 10.0 mi North 5.8 mph - N/A   Overcast
1:35 PM 17.6 °F 9.3 °F 15.8 °F 93% 30.47 in 10.0 mi North 5.8 mph - N/A   Overcast
1:55 PM 17.6 °F 9.3 °F 15.8 °F 93% 30.47 in 10.0 mi North 5.8 mph - N/A   Overcast
2:15 PM 17.6 °F 9.3 °F 15.8 °F 93% 30.47 in 10.0 mi North 5.8 mph - N/A   Overcast
2:35 PM 17.6 °F 9.3 °F 14.0 °F 86% 30.48 in 10.0 mi North 5.8 mph - N/A   Overcast
2:55 PM 17.6 °F 9.3 °F 14.0 °F 86% 30.48 in 10.0 mi North 5.8 mph - N/A   Overcast
3:15 PM 17.6 °F 10.7 °F 14.0 °F 86% 30.49 in 10.0 mi North 4.6 mph - N/A   Overcast
3:35 PM 17.6 °F 10.7 °F 14.0 °F 86% 30.48 in 10.0 mi North 4.6 mph - N/A   Overcast
3:55 PM 17.6 °F 10.7 °F 14.0 °F 86% 30.49 in 10.0 mi North 4.6 mph - N/A   Overcast
4:15 PM 17.6 °F 10.7 °F 14.0 °F 86% 30.49 in 10.0 mi North 4.6 mph - N/A   Overcast
4:35 PM 17.6 °F 10.7 °F 14.0 °F 86% 30.50 in 10.0 mi North 4.6 mph - N/A   Overcast
4:55 PM 17.6 °F 10.7 °F 14.0 °F 86% 30.50 in 10.0 mi North 4.6 mph - N/A   Overcast
5:15 PM 17.6 °F 12.3 °F 14.0 °F 86% 30.50 in 10.0 mi North 3.5 mph - N/A   Overcast
5:35 PM 17.6 °F 10.7 °F 14.0 °F 86% 30.50 in 10.0 mi North 4.6 mph - N/A   Overcast
5:55 PM 15.8 °F 10.2 °F 12.2 °F 86% 30.49 in 10.0 mi NNE 3.5 mph - N/A   Overcast
6:15 PM 15.8 °F 8.6 °F 12.2 °F 86% 30.50 in 10.0 mi North 4.6 mph - N/A   Overcast
6:35 PM 15.8 °F 7.2 °F 14.0 °F 93% 30.49 in 10.0 mi North 5.8 mph - N/A   Overcast
6:55 PM 15.8 °F 8.6 °F 12.2 °F 86% 30.49 in 10.0 mi North 4.6 mph - N/A   Overcast
7:15 PM 15.8 °F 7.2 °F 12.2 °F 86% 30.48 in 10.0 mi NNE 5.8 mph - N/A   Overcast
7:35 PM 15.8 °F 7.2 °F 12.2 °F 86% 30.47 in 10.0 mi North 5.8 mph - N/A   Mostly Cloudy
7:55 PM 15.8 °F 10.2 °F 12.2 °F 86% 30.47 in 10.0 mi North 3.5 mph - N/A   Scattered Clouds
8:15 PM 15.8 °F 10.2 °F 12.2 °F 86% 30.47 in 10.0 mi NNE 3.5 mph - N/A   Partly Cloudy
8:35 PM 15.8 °F 8.6 °F 12.2 °F 86% 30.47 in 10.0 mi NNE 4.6 mph - N/A   Partly Cloudy
8:55 PM 14.0 °F 6.5 °F 12.2 °F 93% 30.47 in 10.0 mi NNE 4.6 mph - N/A   Clear
9:15 PM 14.0 °F 8.2 °F 12.2 °F 93% 30.47 in 10.0 mi NNE 3.5 mph - N/A   Partly Cloudy
9:35 PM 14.0 °F 6.5 °F 10.4 °F 86% 30.47 in 10.0 mi NNE 4.6 mph - N/A   Partly Cloudy
9:55 PM 15.8 °F 10.2 °F 12.2 °F 86% 30.48 in 10.0 mi NNE 3.5 mph - N/A   Mostly Cloudy
10:15 PM 15.8 °F 10.2 °F 12.2 °F 86% 30.49 in 10.0 mi North 3.5 mph - N/A   Scattered Clouds
10:35 PM 14.0 °F 6.5 °F 10.4 °F 86% 30.48 in 10.0 mi North 4.6 mph - N/A   Clear
10:55 PM 12.2 °F 4.3 °F 10.4 °F 92% 30.48 in 10.0 mi NNE 4.6 mph - N/A   Clear
11:15 PM 12.2 °F 1.7 °F 8.6 °F 85% 30.48 in 10.0 mi NNE 6.9 mph - N/A   Clear
11:35 PM 12.2 °F 2.9 °F 8.6 °F 85% 30.48 in 10.0 mi NNE 5.8 mph - N/A   Clear
11:55 PM 12.2 °F 1.7 °F 6.8 °F 79% 30.47 in 10.0 mi NNE 6.9 mph - N/A   Clear